TimePST,TemperatureF,Dew PointF,Humidity,Sea Level PressureIn,VisibilityMPH,Wind Direction,Wind SpeedMPH,Gust SpeedMPH,PrecipitationIn,Events,Conditions,WindDirDegrees,DateUTC
12:00 AM,39.2,35.6,87,30.13,15.0,SW,4.6,-,N/A,,Mostly Cloudy,220,2013-01-08 08:00:00
1:00 AM,37.4,35.6,93,30.13,15.0,Calm,Calm,-,N/A,,Mostly Cloudy,0,2013-01-08 09:00:00
2:00 AM,39.2,37.4,93,30.14,15.0,Calm,Calm,-,N/A,,Overcast,0,2013-01-08 10:00:00
3:00 AM,39.2,37.4,93,30.14,15.0,NW,6.9,-,N/A,,Overcast,320,2013-01-08 11:00:00
4:00 AM,40,38,88,30.13,15,West,4.6,,,,Overcast,260,2013-01-08 12:00:00
4:00 AM,39.2,37.4,93,30.13,15.0,West,4.6,-,N/A,,Overcast,270,2013-01-08 12:00:00
5:00 AM,39.2,39.2,100,30.11,15.0,Calm,Calm,-,N/A,,Overcast,0,2013-01-08 13:00:00
6:00 AM,41.0,37.4,87,30.08,15.0,Calm,Calm,-,N/A,,Overcast,0,2013-01-08 14:00:00
6:30 AM,39.2,-9999,N/A,-9999,12.0,NE,2.3,-,N/A,Rain,Light Rain,40,2013-01-08 14:30:00
7:00 AM,41.0,39.2,93,30.05,8.0,NW,4.6,-,N/A,Rain,Light Rain,310,2013-01-08 15:00:00
8:00 AM,39.2,39.2,100,30.02,5.0,NE,4.6,-,N/A,Rain,Light Rain,50,2013-01-08 16:00:00
9:00 AM,42.8,41.0,93,30.01,5.0,East,10.4,-,N/A,Rain,Light Rain,100,2013-01-08 17:00:00
10:00 AM,42,39,85,29.98,5,ESE,9.2,,,Rain,Light Rain,110,2013-01-08 18:00:00
10:00 AM,41.0,39.2,93,29.98,5.0,ESE,8.1,-,N/A,Rain,Light Rain,120,2013-01-08 18:00:00
10:34 AM,41.0,-9999,N/A,-9999,5.0,East,9.2,-,N/A,Rain,Rain,100,2013-01-08 18:34:00
11:00 AM,41.0,39.2,93,29.94,5.0,ESE,12.7,-,N/A,Rain,Light Rain,110,2013-01-08 19:00:00
11:44 AM,41.0,-9999,N/A,-9999,5.0,East,11.5,-,N/A,Rain,Rain,100,2013-01-08 19:44:00
12:00 PM,41.0,37.4,87,29.91,5.0,East,10.4,-,N/A,Rain,Rain,90,2013-01-08 20:00:00
12:10 PM,41.0,-9999,N/A,-9999,5.0,East,11.5,-,N/A,Rain,Heavy Rain,90,2013-01-08 20:10:00
12:13 PM,41.0,-9999,N/A,-9999,5.0,East,9.2,-,N/A,Rain,Heavy Rain,80,2013-01-08 20:13:00
12:16 PM,41.0,-9999,N/A,-9999,5.0,East,10.4,-,N/A,Rain,Rain,90,2013-01-08 20:16:00
12:20 PM,41.0,-9999,N/A,-9999,5.0,East,10.4,-,N/A,Rain,Heavy Rain,80,2013-01-08 20:20:00
12:25 PM,41.0,-9999,N/A,-9999,5.0,East,11.5,-,N/A,Rain,Rain,80,2013-01-08 20:25:00
12:30 PM,41.0,-9999,N/A,-9999,5.0,East,9.2,-,N/A,Rain,Heavy Rain,90,2013-01-08 20:30:00
12:33 PM,41.0,-9999,N/A,-9999,5.0,East,8.1,-,N/A,Rain,Rain,80,2013-01-08 20:33:00
12:36 PM,41.0,-9999,N/A,-9999,5.0,East,9.2,-,N/A,Rain,Heavy Rain,80,2013-01-08 20:36:00
12:40 PM,41.0,-9999,N/A,-9999,5.0,East,10.4,-,N/A,Rain,Rain,90,2013-01-08 20:40:00
12:47 PM,41.0,-9999,N/A,-9999,5.0,East,8.1,-,N/A,Rain,Heavy Rain,90,2013-01-08 20:47:00
12:54 PM,41.0,-9999,N/A,-9999,5.0,East,8.1,-,N/A,Rain,Rain,100,2013-01-08 20:54:00
1:00 PM,41.0,39.2,93,29.86,5.0,East,5.8,-,N/A,Rain,Rain,100,2013-01-08 21:00:00
1:03 PM,41.0,-9999,N/A,-9999,5.0,East,6.9,-,N/A,Rain,Heavy Rain,90,2013-01-08 21:03:00
1:09 PM,41.0,-9999,N/A,-9999,5.0,East,5.8,-,N/A,Rain,Rain,100,2013-01-08 21:09:00
1:23 PM,41.0,-9999,N/A,-9999,5.0,East,8.1,-,N/A,Rain,Heavy Rain,80,2013-01-08 21:23:00
1:30 PM,41.0,-9999,N/A,-9999,5.0,East,5.8,-,N/A,Rain,Rain,80,2013-01-08 21:30:00
1:38 PM,41.0,-9999,N/A,-9999,5.0,ESE,4.6,-,N/A,Rain,Rain,110,2013-01-08 21:38:00
1:41 PM,41.0,-9999,N/A,-9999,5.0,ESE,4.6,-,N/A,Rain,Heavy Rain,110,2013-01-08 21:41:00
1:46 PM,41.0,-9999,N/A,-9999,5.0,East,4.6,-,N/A,Rain,Rain,90,2013-01-08 21:46:00
2:00 PM,41.0,41.0,100,29.81,4.0,ESE,2.3,-,N/A,Rain,Rain,110,2013-01-08 22:00:00
2:31 PM,42.8,-9999,N/A,-9999,4.0,SE,3.5,-,N/A,Rain,Light Rain,140,2013-01-08 22:31:00
2:35 PM,42.8,-9999,N/A,-9999,3.0,ESE,3.5,-,N/A,Rain,Heavy Rain,110,2013-01-08 22:35:00
2:45 PM,42.8,-9999,N/A,-9999,3.0,ESE,8.1,-,N/A,Rain,Rain,110,2013-01-08 22:45:00
3:00 PM,42.8,42.8,100,29.73,3.0,SE,12.7,-,N/A,Rain,Light Rain,140,2013-01-08 23:00:00
3:06 PM,42.8,-9999,N/A,-9999,3.0,SSE,13.8,-,N/A,Rain,Rain,160,2013-01-08 23:06:00
4:00 PM,40,38,92,29.75,3,West,12.7,,,Rain,Rain,270,2013-01-09 00:00:00
4:00 PM,39.2,39.2,100,29.75,3.0,West,12.7,-,N/A,Rain,Rain,270,2013-01-09 00:00:00
4:25 PM,39.2,-9999,N/A,-9999,3.0,WSW,5.8,-,N/A,Rain,Heavy Rain,250,2013-01-09 00:25:00
4:34 PM,39.2,-9999,N/A,-9999,3.0,West,5.8,-,N/A,Rain,Rain,270,2013-01-09 00:34:00
5:00 PM,39.2,37.4,93,29.70,3.0,West,3.5,-,N/A,Rain,Rain,270,2013-01-09 01:00:00
5:18 PM,39.2,-9999,N/A,-9999,3.0,WNW,2.3,-,N/A,Rain,Rain,290,2013-01-09 01:18:00
6:00 PM,39.2,39.2,100,29.66,3.0,WNW,2.3,-,N/A,Rain,Light Rain,300,2013-01-09 02:00:00
6:05 PM,39.2,-9999,N/A,-9999,3.0,WNW,3.5,-,N/A,Rain,Rain,290,2013-01-09 02:05:00
6:17 PM,39.2,-9999,N/A,-9999,3.0,NW,3.5,-,N/A,Rain,Rain,310,2013-01-09 02:17:00
7:00 PM,39.2,39.2,100,29.64,3.0,Calm,Calm,-,N/A,Rain,Rain,0,2013-01-09 03:00:00
7:34 PM,46.4,-9999,N/A,-9999,3.0,SSE,12.7,-,N/A,Rain,Light Rain,150,2013-01-09 03:34:00
7:45 PM,46.4,-9999,N/A,-9999,3.0,SSE,9.2,-,N/A,Rain,Rain,150,2013-01-09 03:45:00
8:00 PM,46.4,46.4,100,29.62,3.0,SSE,10.4,-,N/A,Rain,Rain,150,2013-01-09 04:00:00
9:00 PM,48.2,46.4,93,29.62,2.5,SE,12.7,-,N/A,Rain,Light Rain,140,2013-01-09 05:00:00
9:09 PM,48.2,-9999,N/A,-9999,2.5,SSE,12.7,-,N/A,Rain,Rain,150,2013-01-09 05:09:00
9:26 PM,48.2,-9999,N/A,-9999,5.0,SSE,13.8,-,N/A,Rain,Rain,160,2013-01-09 05:26:00
9:45 PM,50.0,-9999,N/A,-9999,5.0,South,11.5,20.7,N/A,Rain,Light Rain,190,2013-01-09 05:45:00
10:00 PM,50.0,46.4,87,29.63,5.0,South,13.8,28.8,N/A,Rain,Rain,180,2013-01-09 06:00:00
10:48 PM,48.2,-9999,N/A,-9999,6.0,SW,11.5,36.8,N/A,Rain,Light Rain,230,2013-01-09 06:48:00
11:00 PM,46.4,41.0,81,29.65,10.0,SW,13.8,20.7,N/A,Rain,Light Rain,220,2013-01-09 07:00:00